Regional Weather Roundup
Issued by NWS Little Rock, AR

Home | Current Version | Previous Version | Graphics & Text | Print | Product List | Glossary On
Versions: 1 2 3 4 5 6 7 8 9 10 11 12 13 14 15 16 17 18 19 20 21 22 23 24 25 26 27
000
ASUS44 KLZK 250705
RWRLZK

WEATHER ROUNDUP FOR ARKANSAS
NATIONAL WEATHER SERVICE LITTLE ROCK AR
200 AM CDT WED MAY 25 2016

NOTE: "FAIR" INDICATES FEW OR NO CLOUDS BELOW 12,000 FEET WITH NO
SIGNIFICANT WEATHER AND/OR OBSTRUCTIONS TO VISIBILITY.

ARZ001-003-010-029-250800-
NORTHWEST ARKANSAS

CITY           SKY/WX    TMP DP  RH WIND       PRES   REMARKS
FAYETTEVILLE   CLOUDY    70  67  90 S15G24    29.96R
FORT SMITH     CLOUDY    71  66  84 E7        29.95F
HARRISON       CLOUDY    63  62  97 CALM      29.99R
BENTONVILLE    CLOUDY    73  64  73 S12G18    29.96S
ROGERS           N/A     73  67  81 S15       29.96S
SILOAM SPGS    CLOUDY    72  63  73 S17G24    29.97R
HIGHFILL       CLOUDY    73  69  87 S15       29.95R
$$

ARZ004-005-016-250800-
NORTH CENTRAL ARKANSAS

CITY           SKY/WX    TMP DP  RH WIND       PRES   REMARKS
BATESVILLE     CLOUDY    63  61  94 SE6       30.00F
FLIPPIN        CLOUDY   N/A N/A N/A NE5       29.93F
MTN HOME       MOCLDY    61  60  97 CALM      29.96R
$$

ARZ040-041-250800-
WEST CENTRAL ARKANSAS

CITY           SKY/WX    TMP DP  RH WIND       PRES   REMARKS
MENA           CLOUDY    79  73  83 SE6       30.00F
MOUNT IDA      CLOUDY    70  63  78 VRB6      30.00S
$$

ARZ009-017-025-026-028-250800-
NORTHEAST ARKANSAS

CITY           SKY/WX    TMP DP  RH WIND       PRES   REMARKS
CORNING          N/A     64  64 100 SE6       30.01F
JONESBORO      CLOUDY    64  63  96 E5        30.01F
NEWPORT        PTCLDY    64  64 100 SE3       30.01F
WALNUT RIDGE   PTCLDY    64  61  88 E6        30.00F
BLYTHEVILLE    CLOUDY    66  66 100 SW5       30.03S
$$

ARZ022-023-033-042-044-250800-
CENTRAL ARKANSAS

CITY           SKY/WX    TMP DP  RH WIND       PRES   REMARKS
LITTLE ROCK    CLOUDY    67  63  87 S8        30.01F
N LITTLE ROCK    N/A     65  63  92 S7        29.99F
JACKSONVILLE   PTCLDY    66  65  97 VRB1      30.00F
SEARCY         CLOUDY    65  64  97 CALM      30.03S
HOT SPRINGS    CLOUDY    69  62  78 E8        30.03S
RUSSELLVILLE   CLOUDY    64  63  96 CALM      30.01S
CLINTON        MOCLDY    64  64 100 CALM      29.99F
$$

ARZ036-250800-
EAST ARKANSAS

CITY           SKY/WX    TMP DP  RH WIND       PRES   REMARKS
WEST MEMPHIS   CLOUDY    66  65  96 SE7       30.01F
$$

ARZ050-053-066-070-073-250800-
SOUTHWEST ARKANSAS

CITY           SKY/WX    TMP DP  RH WIND       PRES   REMARKS
ARKADELPHIA    CLOUDY    70  70 100 CALM      30.03S
CAMDEN         MOCLDY    72  64  78 E5        30.01F
TEXARKANA      CLOUDY    76  71  85 S10       29.98F
EL DORADO      CLOUDY    76  70  82 S10       30.02F
DE QUEEN       CLOUDY    78  72  81 SE8       29.96R
$$

ARZ056-057-069-250800-
SOUTHEAST ARKANSAS

CITY           SKY/WX    TMP DP  RH WIND       PRES   REMARKS
PINE BLUFF     CLEAR     67  62  84 SE7       30.04F
STUTTGART      CLEAR     68  61  77 S10       30.02F
MONTICELLO     MOCLDY    68  65  90 SE6       30.05F

$$






USA.gov is the U.S. government's official web portal to all federal, state and local government web resources and services.